Kineis-2A

operational
NORAD ID: 62932 Int'l Des: 2025-028 Owner: KINEIS Country: F
LEOCIRCULARRETROGRADESSO

About Kineis-2A

Description loading...

Live Position

Loading 3D Globe...

Upcoming Passes

Altitude History

Altitude vs Time

uPlot chart will show altitude changes over time

Two-Line Element Set

1 62932U 25028E 26062.16238828 .00001422 00000-0 23412-3 0 9997
2 62932 98.0700 117.7131 0003272 216.9574 143.1408 14.72079334 57000
Epoch: Mar 3, 2026 • Age: 10 hours

Current Status

Altitude 660.5 km
Velocity 7.53 km/s
Sub-Earth Point -8.17°S, 162.15°E
Launch Date Feb 8, 2025
Age 1 years
Type other

Technical Details

Classification Payload
Mass 28.00 kg
Dry Mass 28.00 kg
Total Mass 28.00 kg
Length 0.40 m
Diameter 0.20 m
Span 1.60 m
Shape Box+ 2 pan + ant
Manufacturer KINEIS
Bus Type Cubesat 16U
Phase Status In Orbit
Owner/State KINEIS/F

Large Constellations

Loading constellations...